User: anonymous   Login
Location: Unspecified
(0.0000°N, 0.0000°E)
Time: 12:58:16
(UTC+00:00)
Language:

NAVSTAR 65 (USA 213) - Orbit

View from above orbital plane
View from above orbital plane
View from above satellite
View from above satellite

Ground track
Ground track

The orbit data is extracted from the following two-line orbital elements,

1 36585U 10022A   14301.63396411 -.00000057  00000-0  00000+0 0  7589
2 36585 055.9948 018.7454 0036123 037.5865 014.2638 02.00552330 32376
Epoch (UTC): 28 October 2014 15:12:54
Eccentricity: 0.0036123
inclination: 55.9948°
perigee height: 20087 km
apogee height: 20279 km
right ascension of ascending node: 18.7454°
argument of perigee: 37.5865°
revolutions per day: 2.00552330
mean anomaly at epoch: 14.2638°
orbit number at epoch: 3237

The dashed part of the orbit path shows where the satellite is in the earth's shadow,  

DLR